Weather History for Bloomington, IN

Change the Weather History Date:

Thursday, September 12, 2013

  Actual Average Record
Temperature  
Mean Temperature 72 °F 67 °F  
Max Temperature 80 °F 80 °F 91 °F (1999)
Min Temperature 63 °F 55 °F 45 °F (2007)
Degree Days  
Heating Degree Days 0 1  
Month to date heating degree days 0 8  
Since 1 July heating degree days 14 15  
Cooling Degree Days 7 4  
Month to date cooling degree days 114 59  
Year to date cooling degree days 955 876  
Growing Degree Days 24 (Base 50)    
Moisture  
Dew Point 68 °F    
Average Humidity 73    
Maximum Humidity 93    
Minimum Humidity 53    
Precipitation  
Precipitation 0.32 in 0.13 in 2.00 in (2006)
Month to date precipitation 0.43 1.32  
Year to date precipitation 30.75 34.51  
Sea Level Pressure  
Sea Level Pressure 30.00 in    
Wind  
Wind Speed 6 mph (WNW)    
Max Wind Speed 12 mph    
Max Gust Speed 18 mph    
Visibility 7 miles    
Events Rain    
T = Trace of Precipitation, MM = Missing Value Source: NWS Daily Summary

Daily Weather History Graph

Daily Weather History Graph

Search for Another Location

Airport:

Trip Planner

Search our weather history database for the weather conditions in past years. The results will help you decide how hot, cold, wet, or windy it might be!

Date:

Astronomy

Sep. 12, 2013 Rise Set
Actual Time 7:25 AM EDT 7:59 PM EDT
Civil Twilight 6:58 AM EDT 8:26 PM EDT
Nautical Twilight 6:26 AM EDT 8:57 PM EDT
Astronomical Twilight 5:53 AM EDT 9:30 PM EDT
Moon 2:49 PM EDT (9/12) No Moon Set
Length of Visible Light 13h 27m
Length of Day
12h 33m
Waxing Crescent, 50% of the Moon is Illuminated
Sep 12
Waxing Crescent
Sep 12
First Quarter
Sep 19
Full
Sep 26
Last Quarter
Oct 4
New

Hourly Weather History & Observations

Time (EDT) Temp. Heat Index Dew Point Humidity Pressure Visibility Wind Dir Wind Speed Gust Speed Precip Events Conditions
12:53 AM 75.9 °F - 72.0 °F 87% 30.02 in 7.0 mi SW 4.6 mph - N/A   Clear
1:53 AM 77.0 °F - 72.0 °F 84% 30.01 in 8.0 mi WSW 8.1 mph - N/A   Clear
2:53 AM 75.9 °F - 72.0 °F 87% 30.00 in 8.0 mi WSW 6.9 mph - N/A   Clear
3:53 AM 75.9 °F - 71.1 °F 85% 29.98 in 8.0 mi WSW 6.9 mph - N/A   Clear
4:53 AM 75.0 °F - 71.1 °F 87% 29.98 in 8.0 mi West 5.8 mph - N/A   Clear
5:53 AM 73.9 °F - 71.1 °F 91% 29.98 in 6.0 mi West 4.6 mph - N/A   Partly Cloudy
6:53 AM 73.0 °F - 71.1 °F 93% 29.99 in 6.0 mi West 5.8 mph - N/A   Partly Cloudy
7:53 AM 72.0 °F - 70.0 °F 93% 30.00 in 4.0 mi WNW 4.6 mph - N/A   Partly Cloudy
8:13 AM 73.4 °F - 71.6 °F 94% 30.03 in 2.0 mi West 6.9 mph - 0.02 in Rain Light Rain
8:24 AM 73.4 °F - 71.6 °F 94% 30.03 in 4.0 mi Variable 5.8 mph - 0.02 in Rain Light Rain
8:51 AM 71.6 °F - 69.8 °F 94% 30.04 in 1.5 mi Variable 3.5 mph - 0.06 in Rain Rain
8:53 AM 72.0 °F - 70.0 °F 93% 30.02 in 1.2 mi Variable 3.5 mph - 0.08 in Rain Heavy Rain
9:08 AM 71.6 °F - 69.8 °F 94% 30.04 in 2.5 mi NNW 4.6 mph - 0.03 in Rain Rain
9:24 AM 71.6 °F - 69.8 °F 94% 30.04 in 3.0 mi Variable 3.5 mph - 0.06 in Rain Light Rain
9:31 AM 71.6 °F - 69.8 °F 94% 30.04 in 1.8 mi North 5.8 mph - 0.13 in Rain Heavy Rain
9:43 AM 71.6 °F - 69.8 °F 94% 30.05 in 3.0 mi NNW 4.6 mph - 0.15 in Rain Light Rain
9:53 AM 71.1 °F - 69.1 °F 93% 30.02 in 4.0 mi NNW 3.5 mph - 0.17 in Rain Rain
10:02 AM 71.6 °F - 69.8 °F 94% 30.06 in 2.5 mi WNW 3.5 mph - 0.01 in Rain Light Rain
10:10 AM 71.6 °F - 69.8 °F 94% 30.06 in 5.0 mi WNW 3.5 mph - 0.02 in Rain Light Rain
10:24 AM 71.6 °F - 69.8 °F 94% 30.07 in 3.0 mi WNW 3.5 mph - 0.04 in Rain Light Rain
10:53 AM 70.0 °F - 66.0 °F 87% 30.03 in 8.0 mi Calm Calm - 0.07 in Rain Light Rain
11:53 AM 72.0 °F - 69.1 °F 91% 30.03 in 10.0 mi Variable 5.8 mph - 0.00 in   Overcast
12:44 PM 73.4 °F - 69.8 °F 88% 30.04 in 10.0 mi WNW 6.9 mph - 0.00 in   Partly Cloudy
12:53 PM 73.9 °F - 69.1 °F 85% 30.01 in 10.0 mi Variable 4.6 mph - 0.00 in   Scattered Clouds
1:53 PM 73.9 °F - 69.1 °F 85% 29.99 in 10.0 mi Variable 3.5 mph - N/A   Scattered Clouds
2:53 PM 75.9 °F - 66.0 °F 71% 29.98 in 10.0 mi West 8.1 mph - N/A   Clear
3:53 PM 78.1 °F - 64.9 °F 64% 29.96 in 10.0 mi WNW 9.2 mph - N/A   Clear
4:53 PM 79.0 °F - 64.9 °F 62% 29.93 in 10.0 mi West 8.1 mph - N/A   Clear
5:53 PM 80.1 °F 81.7 °F 64.0 °F 58% 29.92 in 10.0 mi WNW 6.9 mph - N/A   Clear
6:53 PM 78.1 °F - 64.0 °F 62% 29.91 in 10.0 mi West 4.6 mph - N/A   Clear
7:53 PM 73.9 °F - 64.9 °F 73% 29.91 in 10.0 mi WSW 4.6 mph - N/A   Scattered Clouds
8:53 PM 73.0 °F - 64.0 °F 73% 29.93 in 10.0 mi NW 3.5 mph - N/A   Mostly Cloudy
9:53 PM 72.0 °F - 53.1 °F 51% 29.96 in 10.0 mi Variable 3.5 mph - N/A   Clear
10:53 PM 69.1 °F - 52.0 °F 54% 29.97 in 10.0 mi North 9.2 mph - N/A   Clear
11:53 PM 66.0 °F - 55.0 °F 68% 29.99 in 10.0 mi North 8.1 mph - N/A   Clear